| time (UTC) | temp C | wind direction | speed KPH | gust KPH | rain 1hr cm | rain 24hr cm | rain mn cm | humidity % | barometer mb |
| 20260902141503 | 23 | 177 | 3.2 | 6.4 | 0.00 | 0.00 | 0.00 | 48 | 1013.6 |
| 20260902141004 | 23 | 210 | 3.2 | 6.4 | 0.00 | 0.00 | 0.00 | 49 | 1013.9 |
| 20260902140504 | 23 | 241 | 3.2 | 6.4 | 0.00 | 0.00 | 0.00 | 46 | 1013.6 |
| 20260902140004 | 23 | 223 | 3.2 | 8.0 | 0.00 | 0.00 | 0.00 | 46 | 1013.8 |
| 20260902134504 | 25 | 171 | 3.2 | 12.9 | 0.00 | 0.00 | 0.00 | 43 | 1013.7 |
| 20260902134003 | 24 | 155 | 3.2 | 6.4 | 0.00 | 0.00 | 0.00 | 45 | 1013.6 |
| 20260902133504 | 24 | 255 | 3.2 | 6.4 | 0.00 | 0.00 | 0.00 | 46 | 1013.8 |
| 20260902133004 | 23 | 236 | 3.2 | 6.4 | 0.00 | 0.00 | 0.00 | 48 | 1013.8 |
| 20260902132503 | 23 | 220 | 4.8 | 8.0 | 0.00 | 0.00 | 0.00 | 46 | 1013.7 |
| 20260902132003 | 23 | 226 | 3.2 | 8.0 | 0.00 | 0.00 | 0.00 | 46 | 1013.9 |
| 20260902131503 | 23 | 228 | 3.2 | 11.3 | 0.00 | 0.00 | 0.00 | 45 | 1013.9 |
| 20260902125503 | 24 | 240 | 4.8 | 6.4 | 0.00 | 0.00 | 0.00 | 44 | 1013.8 |
| 20260902125003 | 23 | 211 | 4.8 | 6.4 | 0.00 | 0.00 | 0.00 | 45 | 1013.9 |
| 20260902124504 | 23 | 202 | 3.2 | 12.9 | 0.00 | 0.00 | 0.00 | 46 | 1013.6 |
| 20260902124004 | 23 | 222 | 4.8 | 12.9 | 0.00 | 0.00 | 0.00 | 46 | 1013.8 |
| 20260902123504 | 22 | 214 | 3.2 | 12.9 | 0.00 | 0.00 | 0.00 | 46 | 1013.8 |
| 20260902123004 | 22 | 195 | 3.2 | 12.9 | 0.00 | 0.00 | 0.00 | 45 | 1013.9 |
| 20260902122504 | 22 | 169 | 3.2 | 9.7 | 0.00 | 0.00 | 0.00 | 46 | 1013.8 |
| 20260902122005 | 22 | 287 | 4.8 | 9.7 | 0.00 | 0.00 | 0.00 | 46 | 1014.1 |
| 20260902121004 | 22 | 50 | 3.2 | 6.4 | 0.00 | 0.00 | 0.00 | 45 | 1014.1 |
| 20260902120505 | 23 | 83 | 4.8 | 8.0 | 0.00 | 0.00 | 0.00 | 44 | 1013.9 |
| 20260902120005 | 23 | 177 | 4.8 | 8.0 | 0.00 | 0.00 | 0.00 | 44 | 1014.0 |
| 20260902115504 | 23 | 199 | 3.2 | 14.5 | 0.00 | 0.00 | 0.00 | 44 | 1014.1 |
| 20260902115004 | 23 | 208 | 6.4 | 14.5 | 0.00 | 0.00 | 0.00 | 42 | 1014.1 |
| 20260902114505 | 23 | 176 | 6.4 | 12.9 | 0.00 | 0.00 | 0.00 | 44 | 1014.1 |
| 20260902114005 | 23 | 191 | 6.4 | 12.9 | 0.00 | 0.00 | 0.00 | 43 | 1014.1 |
| 20260902113504 | 23 | 240 | 6.4 | 12.9 | 0.00 | 0.00 | 0.00 | 44 | 1014.2 |
| 20260902113005 | 23 | 271 | 6.4 | 12.9 | 0.00 | 0.00 | 0.00 | 43 | 1014.1 |
| 20260902112504 | 23 | 220 | 6.4 | 12.9 | 0.00 | 0.00 | 0.00 | 43 | 1014.2 |
| 20260902112005 | 23 | 182 | 3.2 | 12.9 | 0.00 | 0.00 | 0.00 | 43 | 1014.1 |
| 20260902111005 | 22 | 208 | 4.8 | 8.0 | 0.00 | 0.00 | 0.00 | 45 | 1014.1 |
| 20260902110504 | 22 | 187 | 3.2 | 8.0 | 0.00 | 0.00 | 0.00 | 49 | 1014.1 |
| 20260902110007 | 22 | 183 | 6.4 | 11.3 | 0.00 | 0.00 | 0.00 | 47 | 1014.3 |
| 20260902105005 | 22 | 326 | 4.8 | 8.0 | 0.00 | 0.00 | 0.00 | 45 | 1014.4 |
| 20260902104505 | 23 | 253 | 6.4 | 8.0 | 0.00 | 0.00 | 0.00 | 46 | 1014.7 |
| 20260902104005 | 23 | 218 | 3.2 | 11.3 | 0.00 | 0.00 | 0.00 | 50 | 1014.4 |
| 20260902103004 | 23 | 175 | 3.2 | 11.3 | 0.00 | 0.00 | 0.00 | 51 | 1014.5 |
| 20260902102504 | 23 | 186 | 6.4 | 11.3 | 0.00 | 0.00 | 0.00 | 50 | 1014.4 |
| 20260902102004 | 23 | 212 | 6.4 | 11.3 | 0.00 | 0.00 | 0.00 | 51 | 1014.6 |
| 20260902101005 | 22 | 66 | 3.2 | 8.0 | 0.00 | 0.00 | 0.00 | 53 | 1014.7 |
| 20260902100004 | 22 | 210 | 4.8 | 11.3 | 0.00 | 0.00 | 0.00 | 57 | 1014.7 |
| 20260902095505 | 22 | 197 | 6.4 | 9.7 | 0.00 | 0.00 | 0.00 | 57 | 1014.8 |
| 20260902095004 | 21 | 203 | 4.8 | 9.7 | 0.00 | 0.00 | 0.00 | 58 | 1014.5 |
| 20260902094505 | 21 | 178 | 4.8 | 9.7 | 0.00 | 0.00 | 0.00 | 60 | 1014.5 |
| 20260902094005 | 21 | 188 | 6.4 | 9.7 | 0.00 | 0.00 | 0.00 | 60 | 1014.4 |
| 20260902093504 | 21 | 192 | 6.4 | 11.3 | 0.00 | 0.00 | 0.00 | 61 | 1014.4 |
| 20260902093005 | 21 | 172 | 6.4 | 11.3 | 0.00 | 0.00 | 0.00 | 62 | 1014.6 |
| 20260902092504 | 21 | 174 | 3.2 | 9.7 | 0.00 | 0.00 | 0.00 | 62 | 1014.6 |
| 20260902091504 | 20 | 212 | 6.4 | 9.7 | 0.00 | 0.00 | 0.00 | 64 | 1014.8 |
| 20260902090504 | 20 | 100 | 1.6 | 3.2 | 0.00 | 0.00 | 0.00 | 72 | 1014.8 |
| 20260902090005 | 19 | 25 | 1.6 | 3.2 | 0.00 | 0.00 | 0.00 | 76 | 1015.0 |
| 20260902085505 | 18 | 24 | 1.6 | 3.2 | 0.00 | 0.00 | 0.00 | 78 | 1015.0 |
| 20260902085005 | 17 | 181 | 0.0 | 3.2 | 0.00 | 0.00 | 0.00 | 77 | 1014.9 |
| 20260902084504 | 17 | 162 | 0.0 | 4.8 | 0.00 | 0.00 | 0.00 | 81 | 1015.0 |
| 20260902084005 | 17 | 156 | 0.0 | 4.8 | 0.00 | 0.00 | 0.00 | 81 | 1015.1 |
| 20260902083505 | 17 | 298 | 3.2 | 4.8 | 0.00 | 0.00 | 0.00 | 82 | 1015.0 |
| 20260902083004 | 17 | 283 | 1.6 | 4.8 | 0.00 | 0.00 | 0.00 | 82 | 1014.9 |
| 20260902082004 | 17 | 174 | 1.6 | 3.2 | 0.00 | 0.00 | 0.00 | 90 | 1014.9 |
| 20260902081505 | 16 | 192 | 0.0 | 4.8 | 0.00 | 0.00 | 0.00 | 92 | 1015.0 |
| 20260902081005 | 15 | 212 | 0.0 | 4.8 | 0.00 | 0.00 | 0.00 | 93 | 1014.9 |
| 20260902080505 | 14 | 220 | 3.2 | 3.2 | 0.00 | 0.00 | 0.00 | 97 | 1014.8 |
| 20260902080004 | 14 | 199 | 3.2 | 3.2 | 0.00 | 0.00 | 0.00 | 97 | 1014.6 |
| 20260902075506 | 13 | 0 | 0.0 | 0.0 | 0.00 | 0.00 | 0.00 | 98 | 1014.6 |
| 20260901213504 | 13 | 0 | 0.0 | 0.0 | 0.00 | 0.00 | 0.00 | 83 | 1015.1 |
| 20260901213004 | 13 | 167 | 0.0 | 3.2 | 0.00 | 0.00 | 0.00 | 83 | 1015.0 |
| 20260901212503 | 13 | 134 | 0.0 | 3.2 | 0.00 | 0.00 | 0.00 | 83 | 1015.0 |
| 20260901204004 | 15 | 77 | 0.0 | 3.2 | 0.00 | 0.05 | 0.00 | 79 | 1015.0 |
| 20260901203503 | 15 | 159 | 0.0 | 1.6 | 0.00 | 0.05 | 0.00 | 79 | 1014.8 |
| 20260901203004 | 15 | 154 | 0.0 | 3.2 | 0.00 | 0.05 | 0.00 | 78 | 1014.9 |
| 20260901202503 | 16 | 170 | 0.0 | 3.2 | 0.00 | 0.05 | 0.00 | 78 | 1015.0 |
| 20260901202004 | 16 | 175 | 0.0 | 3.2 | 0.00 | 0.05 | 0.00 | 78 | 1014.8 |
| 20260901201004 | 16 | 181 | 0.0 | 1.6 | 0.00 | 0.05 | 0.00 | 77 | 1014.8 |
| 20260901200503 | 16 | 177 | 1.6 | 3.2 | 0.00 | 0.05 | 0.00 | 76 | 1014.6 |
| 20260901200003 | 16 | 177 | 1.6 | 3.2 | 0.00 | 0.05 | 0.00 | 76 | 1014.6 |
| 20260901195504 | 16 | 181 | 1.6 | 3.2 | 0.00 | 0.05 | 0.00 | 75 | 1014.6 |
| 20260901195003 | 17 | 0 | 0.0 | 0.0 | 0.00 | 0.05 | 0.00 | 74 | 1014.7 |
| 20260901194003 | 17 | 0 | 0.0 | 0.0 | 0.00 | 0.05 | 0.00 | 69 | 1014.6 |
| 20260901192003 | 18 | 50 | 1.6 | 3.2 | 0.00 | 0.05 | 0.00 | 67 | 1014.7 |
| 20260901191504 | 18 | 135 | 0.0 | 1.6 | 0.00 | 0.05 | 0.00 | 67 | 1014.6 |
| 20260901191004 | 18 | 153 | 0.0 | 3.2 | 0.00 | 0.05 | 0.00 | 66 | 1014.6 |
| 20260901185503 | 18 | 42 | 1.6 | 6.4 | 0.00 | 0.05 | 0.00 | 65 | 1014.4 |
| 20260901185004 | 18 | 75 | 0.0 | 6.4 | 0.00 | 0.05 | 0.00 | 64 | 1014.3 |
| 20260901183504 | 19 | 331 | 3.2 | 8.0 | 0.00 | 0.05 | 0.00 | 63 | 1014.2 |
| 20260901183004 | 19 | 84 | 1.6 | 8.0 | 0.00 | 0.05 | 0.00 | 62 | 1014.2 |
| 20260901182503 | 20 | 90 | 3.2 | 8.0 | 0.00 | 0.05 | 0.00 | 61 | 1014.2 |
| 20260901182003 | 20 | 29 | 6.4 | 8.0 | 0.00 | 0.05 | 0.00 | 61 | 1013.8 |
| 20260901181504 | 20 | 359 | 1.6 | 4.8 | 0.00 | 0.05 | 0.00 | 60 | 1013.7 |
| 20260901181003 | 20 | 225 | 0.0 | 3.2 | 0.00 | 0.05 | 0.00 | 60 | 1013.9 |
| 20260901180503 | 21 | 211 | 1.6 | 3.2 | 0.00 | 0.05 | 0.00 | 56 | 1013.5 |
| 20260901180004 | 21 | 198 | 1.6 | 3.2 | 0.00 | 0.05 | 0.00 | 56 | 1013.8 |
| 20260901175503 | 21 | 201 | 3.2 | 3.2 | 0.00 | 0.05 | 0.00 | 55 | 1013.5 |
| 20260901175004 | 21 | 193 | 1.6 | 3.2 | 0.00 | 0.10 | 0.00 | 53 | 1013.3 |
| 20260901174503 | 21 | 177 | 1.6 | 4.8 | 0.00 | 0.15 | 0.00 | 52 | 1013.5 |
| 20260901173503 | 21 | 169 | 1.6 | 4.8 | 0.00 | 0.41 | 0.00 | 51 | 1013.5 |
| 20260901173003 | 22 | 194 | 3.2 | 4.8 | 0.00 | 0.41 | 0.00 | 50 | 1013.3 |
| 20260901172504 | 22 | 207 | 3.2 | 6.4 | 0.00 | 0.41 | 0.00 | 45 | 1013.2 |
| 20260901172003 | 23 | 199 | 3.2 | 6.4 | 0.00 | 0.41 | 0.00 | 44 | 1013.3 |
| 20260901171504 | 23 | 199 | 3.2 | 8.0 | 0.00 | 0.41 | 0.00 | 43 | 1013.4 |
| 20260901171004 | 23 | 189 | 3.2 | 8.0 | 0.00 | 0.41 | 0.00 | 42 | 1013.3 |
| 20260901170504 | 24 | 191 | 1.6 | 8.0 | 0.00 | 0.41 | 0.00 | 41 | 1013.3 |
| 20260901170004 | 25 | 202 | 1.6 | 6.4 | 0.00 | 0.41 | 0.00 | 41 | 1013.3 |
| 20260901165504 | 25 | 193 | 4.8 | 8.0 | 0.00 | 0.41 | 0.00 | 41 | 1013.5 |
| 20260901164503 | 25 | 190 | 1.6 | 3.2 | 0.00 | 0.41 | 0.00 | 43 | 1013.5 |
| 20260901163504 | 25 | 148 | 1.6 | 6.4 | 0.00 | 0.41 | 0.00 | 43 | 1013.4 |
| 20260901162503 | 25 | 153 | 3.2 | 6.4 | 0.00 | 0.41 | 0.00 | 43 | 1013.4 |
| 20260901161504 | 25 | 222 | 1.6 | 6.4 | 0.00 | 0.41 | 0.00 | 44 | 1013.4 |
| 20260901161004 | 25 | 205 | 3.2 | 6.4 | 0.00 | 0.41 | 0.00 | 43 | 1013.4 |
| 20260901160503 | 25 | 121 | 1.6 | 6.4 | 0.00 | 0.41 | 0.00 | 46 | 1013.3 |
| 20260901160004 | 25 | 139 | 1.6 | 6.4 | 0.00 | 0.41 | 0.00 | 46 | 1013.3 |
| 20260901155504 | 25 | 208 | 4.8 | 6.4 | 0.00 | 0.41 | 0.00 | 46 | 1013.5 |
| 20260901155004 | 24 | 211 | 3.2 | 6.4 | 0.00 | 0.41 | 0.00 | 50 | 1013.5 |
| 20260901154504 | 23 | 208 | 3.2 | 8.0 | 0.00 | 0.41 | 0.00 | 50 | 1013.7 |
| 20260901154003 | 23 | 198 | 3.2 | 8.0 | 0.00 | 0.41 | 0.00 | 50 | 1013.5 |
| 20260901153503 | 23 | 195 | 1.6 | 6.4 | 0.00 | 0.41 | 0.00 | 51 | 1013.6 |
| 20260901153004 | 23 | 182 | 3.2 | 6.4 | 0.00 | 0.41 | 0.00 | 52 | 1013.5 |
| 20260901152503 | 22 | 175 | 3.2 | 6.4 | 0.00 | 0.41 | 0.00 | 52 | 1013.5 |
| 20260901152004 | 22 | 189 | 3.2 | 6.4 | 0.00 | 0.41 | 0.00 | 52 | 1013.6 |
| 20260901151503 | 22 | 203 | 3.2 | 6.4 | 0.00 | 0.41 | 0.00 | 51 | 1013.5 |
| 20260901150004 | 23 | 204 | 4.8 | 12.9 | 0.00 | 0.41 | 0.00 | 51 | 1013.5 |
| 20260901145504 | 23 | 218 | 4.8 | 9.7 | 0.00 | 0.41 | 0.00 | 50 | 1013.7 |
| 20260901145004 | 23 | 262 | 4.8 | 9.7 | 0.00 | 0.41 | 0.00 | 51 | 1013.5 |
| 20260901144503 | 22 | 275 | 3.2 | 6.4 | 0.00 | 0.41 | 0.00 | 51 | 1013.5 |
| 20260901144004 | 22 | 329 | 3.2 | 6.4 | 0.00 | 0.41 | 0.00 | 52 | 1013.5 |
| 20260901143503 | 22 | 280 | 3.2 | 8.0 | 0.00 | 0.41 | 0.00 | 52 | 1013.7 |
| 20260901143004 | 22 | 256 | 6.4 | 9.7 | 0.00 | 0.41 | 0.00 | 51 | 1013.6 |
| 20260901142504 | 22 | 172 | 4.8 | 9.7 | 0.00 | 0.41 | 0.00 | 51 | 1013.6 |
| 20260901142003 | 23 | 174 | 3.2 | 6.4 | 0.00 | 0.41 | 0.00 | 51 | 1013.6 |